Weather History for Ubon Ratchathani, Thailand

Change the Weather History Date:

Monday, November 12, 2012

  Actual Average Record
Temperature  
Mean Temperature 84 °F -  
Max Temperature 95 °F 87 °F - ()
Min Temperature 74 °F 66 °F - ()
Cooling Degree Days 20    
Growing Degree Days 34 (Base 50)    
Moisture  
Dew Point 70 °F    
Average Humidity 67    
Maximum Humidity 83    
Minimum Humidity 43    
Precipitation  
Precipitation 0.00 in 0.02 in - ()
Sea Level Pressure  
Sea Level Pressure 29.85 in    
Wind  
Wind Speed 4 mph ()    
Max Wind Speed 8 mph    
Max Gust Speed -    
Visibility 5.9 miles    
Events      
T = Trace of Precipitation, MM = Missing Value Source: Averaged Metar Reports

Daily Weather History Graph

Daily Weather History Graph

Search for Another Location

Airport:

Trip Planner

Search our weather history database for the weather conditions in past years. The results will help you decide how hot, cold, wet, or windy it might be!

Date:

Astronomy

Nov. 12, 2012 Rise Set
Actual Time 6:01 AM ICT 5:28 PM ICT
Civil Twilight 5:38 AM ICT 5:50 PM ICT
Nautical Twilight 5:12 AM ICT 6:16 PM ICT
Astronomical Twilight 4:46 AM ICT 6:42 PM ICT
Moon 4:01 AM ICT (11/12) 4:00 PM ICT (11/12)
Length of Visible Light 12h 12m
Length of Day
11h 27m
Waning Crescent, 4% of the Moon is Illuminated
Nov 12
Waning Crescent
Nov 14
New
Nov 20
First Quarter
Nov 28
Full
Dec 6
Last Quarter

Hourly Weather History & Observations

Time (ICT) Temp. Heat Index Dew Point Humidity Pressure Visibility Wind Dir Wind Speed Gust Speed Precip Events Conditions
12:00 AM 78.8 °F - 69.8 °F 74% 29.86 in 5.6 mi NNE 3.5 mph - N/A   Unknown
1:00 AM 78 °F - 70 °F 69% 29.85 in 6 mi NNE 3.5 mph - -   Mist
1:00 AM 78.8 °F - 69.8 °F 74% 29.83 in 5.6 mi NNE 3.5 mph - N/A   Mostly Cloudy
2:00 AM 77.0 °F - 69.8 °F 78% 29.83 in 5.6 mi NNE 3.5 mph - N/A   Mostly Cloudy
4:00 AM 75.2 °F - 69.8 °F 83% 29.83 in 5.6 mi NE 4.6 mph - N/A   Unknown
5:00 AM 75.2 °F - 69.8 °F 83% 29.83 in 5.6 mi NE 6.9 mph - N/A   Unknown
6:00 AM 75.2 °F - 69.8 °F 83% 29.86 in - NNE 4.6 mph - N/A   Clear
6:30 AM 75.2 °F - 69.8 °F 83% 29.86 in - NNE 4.6 mph - N/A   Clear
7:00 AM 76 °F - 69 °F 75% 29.89 in 6 mi NNE 5.8 mph - -   Scattered Clouds
7:00 AM 77.0 °F - 69.8 °F 78% 29.86 in - NNE 5.8 mph - N/A   Clear
8:00 AM 77.0 °F - 69.8 °F 78% 29.89 in - NNE 4.6 mph - N/A   Clear
9:00 AM 80.6 °F 83.9 °F 69.8 °F 70% 29.92 in - NNE 4.6 mph - N/A   Clear
11:00 AM 89.6 °F 94.7 °F 69.8 °F 52% 29.89 in - NE 6.9 mph - N/A   Clear
12:00 PM 87.8 °F 92.6 °F 69.8 °F 55% 29.86 in 6.2 mi North 2.3 mph - N/A   Scattered Clouds
1:00 PM 90 °F - 71 °F 43% 29.83 in 6 mi NNE 4.6 mph - -   Scattered Clouds
1:00 PM 91.4 °F 96.8 °F 69.8 °F 49% 29.83 in 6.2 mi NNE 4.6 mph - N/A   Scattered Clouds
2:00 PM 91.4 °F 95.4 °F 68.0 °F 46% 29.80 in 6.2 mi North 1.2 mph - N/A   Scattered Clouds
3:00 PM 91.4 °F 96.8 °F 69.8 °F 49% 29.80 in 6.2 mi NW 3.5 mph - N/A   Mostly Cloudy
4:00 PM 93.2 °F 98.8 °F 69.8 °F 46% 29.80 in 6.2 mi NNE 3.5 mph - N/A   Mostly Cloudy
5:00 PM 89.6 °F 96.2 °F 71.6 °F 55% 29.80 in 6.2 mi North 1.2 mph - N/A   Mostly Cloudy
5:30 PM 87.8 °F 95.6 °F 73.4 °F 62% 29.80 in 5.6 mi North 2.3 mph - N/A   Mostly Cloudy
6:00 PM 86.0 °F 93.4 °F 73.4 °F 66% 29.80 in 5.6 mi North 2.3 mph - N/A   Mostly Cloudy
7:00 PM 84 °F - 71 °F 56% 29.86 in 6 mi NNE 5.8 mph - -   Haze
7:00 PM 84.2 °F 89.6 °F 71.6 °F 66% 29.86 in 5.6 mi NNE 5.8 mph - N/A   Mostly Cloudy
8:00 PM 82.4 °F 87.2 °F 71.6 °F 70% 29.89 in - NNE 5.8 mph - N/A   Clear
9:00 PM 80.6 °F 83.9 °F 69.8 °F 70% 29.89 in - NNE 8.1 mph - N/A   Clear
10:00 PM 78.8 °F - 71.6 °F 78% 29.92 in - NNE 8.1 mph - N/A   Clear
11:00 PM 78.8 °F - 71.6 °F 78% 29.92 in - NNE 6.9 mph - N/A   Clear